Change the Weather History Date:

Thursday, August 9, 2012

  Actual Average Record
Temperature  
Mean Temperature 71 °F 73 °F  
Max Temperature 88 °F 90 °F 99 °F (1981)
Min Temperature 53 °F 57 °F 45 °F (1985)
Degree Days  
Heating Degree Days 0 0  
Month to date heating degree days 0 0  
Since 1 June heating degree days 92 63  
Since 1 July heating degree days 6 8  
Cooling Degree Days 6 8  
Month to date cooling degree days 111 80  
Year to date cooling degree days 503 434  
Since 1 June cooling degree days 476 409  
Growing Degree Days 20 (Base 50)    
Moisture  
Dew Point 46 °F    
Average Humidity 52    
Maximum Humidity 83    
Minimum Humidity 20    
Precipitation  
Precipitation 0.00 in 0.01 in 0.05 in (1980)
Month to date precipitation 0.00 0.06  
Year to date precipitation 5.58 5.24  
Sea Level Pressure  
Sea Level Pressure 30.02 in    
Wind  
Wind Speed 3 mph (SW)    
Max Wind Speed 9 mph    
Max Gust Speed 10 mph    
Visibility 10 miles    
Events      
T = Trace of Precipitation, MM = Missing Value Source: NWS Daily Summary

Daily Weather History Graph

Daily Weather History Graph

Search for Another Location

Airport or City:

Trip Planner

Search our weather history database for the weather conditions in past years. The results will help you decide how hot, cold, wet, or windy it might be!

Date:

Astronomy

Aug. 09, 2012 Rise Set
Actual Time 5:46 AM PDT 8:17 PM PDT
Civil Twilight 5:12 AM PDT 8:51 PM PDT
Nautical Twilight 4:29 AM PDT 9:34 PM PDT
Astronomical Twilight 3:39 AM PDT 10:24 PM PDT
Moon 11:35 PM PDT (8/9) 2:09 PM PDT (8/9)
Length of Visible Light 15h 39m
Length of Day
14h 30m
Waning Gibbous, 50% of the Moon is Illuminated
Aug 9
Waning Gibbous
Aug 17
New
Aug 24
First Quarter
Aug 31
Full
Sep 8
Last Quarter

Hourly Weather History & Observations

Time (PDT) Temp. Dew Point Humidity Pressure Visibility Wind Dir Wind Speed Gust Speed Precip Events Conditions
12:52 AM 63.0 °F 48.9 °F 60% 30.03 in 10.0 mi SSE 4.6 mph - N/A   Clear
1:52 AM 66.0 °F 48.9 °F 54% 30.03 in 10.0 mi SW 4.6 mph - N/A   Clear
2:52 AM 59.0 °F 48.0 °F 67% 30.04 in 10.0 mi SE 4.6 mph - N/A   Clear
3:52 AM 62.1 °F 48.9 °F 62% 30.04 in 10.0 mi SSW 3.5 mph - N/A   Clear
4:52 AM 54.0 °F 46.9 °F 77% 30.05 in 10.0 mi NNE 3.5 mph - N/A   Clear
5:52 AM 54.0 °F 48.0 °F 80% 30.07 in 10.0 mi ESE 5.8 mph - N/A   Clear
6:52 AM 57.0 °F 48.0 °F 72% 30.08 in 10.0 mi Calm Calm - N/A   Clear
7:52 AM 61.0 °F 48.9 °F 64% 30.08 in 10.0 mi North 4.6 mph - N/A   Clear
8:52 AM 66.9 °F 48.9 °F 52% 30.08 in 10.0 mi ENE 3.5 mph - N/A   Clear
9:52 AM 71.1 °F 46.9 °F 42% 30.08 in 10.0 mi Calm Calm - N/A   Clear
10:52 AM 75.9 °F 42.1 °F 30% 30.07 in 10.0 mi Calm Calm - N/A   Clear
11:52 AM 78.1 °F 45.0 °F 31% 30.06 in 10.0 mi Calm Calm - N/A   Clear
12:52 PM 82.0 °F 46.0 °F 28% 30.05 in 10.0 mi Calm Calm - N/A   Clear
1:52 PM 84.0 °F 44.1 °F 25% 30.03 in 10.0 mi Variable 3.5 mph - N/A   Clear
2:52 PM 86.0 °F 43.0 °F 22% 30.01 in 10.0 mi South 3.5 mph - N/A   Clear
3:52 PM 84.9 °F 43.0 °F 23% 29.99 in 10.0 mi SW 6.9 mph - N/A   Clear
4:52 PM 84.0 °F 46.0 °F 26% 29.98 in 10.0 mi WSW 6.9 mph - N/A   Clear
5:52 PM 87.1 °F 41.0 °F 20% 29.95 in 10.0 mi Calm Calm - N/A   Clear
6:52 PM 84.9 °F 41.0 °F 21% 29.94 in 10.0 mi SW 5.8 mph - N/A   Clear
7:52 PM 82.0 °F 41.0 °F 23% 29.93 in 10.0 mi WNW 5.8 mph - N/A   Clear
8:52 PM 77.0 °F 44.1 °F 31% 29.94 in 10.0 mi West 5.8 mph - N/A   Clear
9:52 PM 75.0 °F 43.0 °F 32% 29.94 in 10.0 mi West 6.9 mph - N/A   Clear
10:52 PM 70.0 °F 48.0 °F 46% 29.94 in 10.0 mi Calm Calm - N/A   Clear
11:52 PM 66.9 °F 46.0 °F 47% 29.95 in 10.0 mi Calm Calm - N/A   Clear